Location: La Bilong�re
(48.1297°N, 1.4584°W)
Time: 07:41:54
(UTC+00:00)

Cosmos 1943 Rocket - Pass Details

Date: 03 March 2021
Orbit: 811 x 844 km, 71.0° (Epoch: 11 April)

Event Time Altitude Azimuth Distance (km) Brightness Sun altitude
Rises 20:42:08 0° 337° (NNW) 3,416 6.0 -28.4°
Reaches altitude 10° 20:45:10 10° 352° (N) 2,477 5.0 -28.8°
Enters shadow 20:48:14 21° 23° (NNE) 1,838 3.9 -29.3°
